Overview Statistics Trail Chart Weather Telemetry Raw packets
 

This is the latest recevied weather packets stored in our database for station/object KC4JIR. If no packets are shown the sender has not sent any weather packets the latest 10 day(s).

<< 7 8 9 10 11 12 13 >>
Time Temp. Humidity Pressure Rain* Wind** Luminosity Snow
1788566675 28.33° C 86% 1012.5 hPa 0 mm - 0 W/m² -
1788566370 28.89° C 84% 1012.4 hPa 0 mm - 0 W/m² -
1788566066 30° C 79% 1011.6 hPa 0 mm - 3 W/m² -
1788565766 30.56° C 77% 1011.5 hPa 0 mm - 6 W/m² -
1788565460 30.56° C 78% 1011.3 hPa 0 mm - 8 W/m² -
1788565156 30.56° C 78% 1011.1 hPa 0 mm - 8 W/m² -
1788564851 31.11° C 79% 1011 hPa 0 mm - 17 W/m² -
1788564548 31.11° C 78% 1011 hPa 0 mm - 28 W/m² -
1788564244 31.11° C 78% 1010.8 hPa 0 mm - 39 W/m² -
1788563940 31.11° C 76% 1010.9 hPa 0 mm - 30 W/m² -
1788563635 31.11° C 74% 1010.8 hPa 0 mm - 30 W/m² -
1788563330 31.67° C 78% 1010.6 hPa 0 mm - 28 W/m² -
1788563029 31.67° C 75% 1010.5 hPa 0 mm - 22 W/m² -
1788562724 31.67° C 76% 1010.5 hPa 0 mm - 22 W/m² -
1788562422 31.67° C 76% 1010.8 hPa 0 mm - 24 W/m² -
1788562124 32.22° C 76% 1010.9 hPa 0 mm - 25 W/m² -
1788561817 32.78° C 74% 1010.8 hPa 0 mm - 26 W/m² -
1788561511 34.44° C 70% 1010.9 hPa 0 mm - 28 W/m² -
1788561205 34.44° C 66% 1010.9 hPa 0 mm - 30 W/m² -
1788560901 33.89° C 64% 1011 hPa 0 mm - 32 W/m² -
1788560595 35° C 65% 1011.1 hPa 0 mm - 38 W/m² -
1788560290 35° C 62% 1011 hPa 0 mm - 139 W/m² -
1788559990 35° C 61% 1011.2 hPa 0 mm - 161 W/m² -
1788559686 35° C 64% 1011 hPa 0 mm - 40 W/m² -
1788559385 34.44° C 63% 1011.2 hPa 0 mm - 36 W/m² -

* Rain latest hour (hover to see other rain measurements)
** Current wind speed in m/s (hover to see current wind gust speed)